Kuchera_Ratio
0.0 0.0 7.5 0.7 0.0 0.0 0.0 6.8 7.7 1.0 0.0 0.0 3.0 3.4 1.1 0.0 0.0 0.0 0.0 0.0 0.0 0.0 0.0 0.0 0.0 0.0 0.0 0.0 0.0 0.0 0.0 0.0 0.0 0.0 0.0 0.0 0.0 0.0 0.0 0.0 0.0 0.0 0.0 0.0
0.0 7.7 0.0 0.0 0.0 0.0 2.7 8.1 9.9 2.9 0.0 0.5 2.3 6.6 4.9 1.1 1.3 1.1 0.1 0.0 0.0 0.0 0.0 0.0 0.0 0.0 0.0 0.0 0.0 0.0 0.0 0.0 0.0 0.0 0.0 0.0 0.0 0.0 0.0 0.0 0.0 0.0 0.0 0.0
7.2 1.7 0.0 0.0 1.8 5.5 9.3 10.5 11.0 10.7 3.1 2.9 2.2 11.9 7.1 1.1 0.0 0.0 0.0 0.0 0.0 0.0 0.0 0.0 0.0 0.0 0.0 0.0 0.0 0.0 0.0 0.0 0.0 0.0 0.0 0.0 0.0 0.0 0.0 0.0 0.0 0.0 0.0 0.0
3.2 0.0 0.0 2.6 4.3 3.9 10.2 3.6 3.9 7.7 11.1 14.4 2.7 14.5 12.7 7.3 5.7 4.1 3.1 1.7 1.7 0.9 0.0 0.0 0.0 0.0 0.0 0.0 0.0 0.0 0.0 0.0 0.0 0.0 0.0 0.0 0.0 0.0 0.0 0.0 0.0 0.0 0.0 0.0
6.0 5.6 5.6 6.5 5.4 1.7 8.7 1.7 4.5 6.1 12.2 12.3 12.3 15.3 14.3 7.9 11.8 9.7 5.7 1.9 0.7 0.0 0.0 0.0 0.0 0.0 0.0 0.0 0.0 0.0 0.0 0.0 0.0 0.0 0.0 0.0 0.0 0.0 0.0 0.0 0.0 0.0 0.0 0.0
6.3 0.0 1.1 4.9 0.9 2.3 0.0 6.1 8.1 10.6 12.9 17.3 12.8 15.1 15.9 13.9 11.9 9.5 6.3 3.5 2.5 0.5 0.0 0.0 0.0 0.0 0.0 0.0 0.0 0.0 0.0 0.0 0.0 0.0 0.0 0.0 0.0 0.0 0.0 0.0 0.0 0.0 0.0 0.0
7.6 7.9 1.1 0.5 8.7 5.1 8.7 13.4 16.5 19.9 20.0 18.8 13.1 15.7 16.7 11.5 7.9 8.5 8.7 6.7 4.7 1.1 1.3 0.3 0.0 0.0 0.0 0.0 0.0 0.0 0.0 0.0 0.0 0.0 0.0 0.0 0.0 0.0 0.0 0.0 0.0 0.0 0.0 0.0
14.8 15.9 10.1 3.1 9.5 13.2 13.3 13.8 18.3 21.0 21.1 17.9 12.9 17.0 17.1 9.3 6.1 6.3 5.5 5.9 5.1 4.3 2.1 2.1 0.3 0.0 0.0 0.0 0.0 0.0 0.0 0.0 0.0 0.0 0.0 0.0 0.0 0.0 0.0 0.0 0.0 0.0 0.0 0.0
14.0 14.7 6.1 5.3 5.3 10.5 12.8 14.5 9.9 15.1 15.1 18.6 16.5 14.9 12.3 9.5 11.9 10.5 10.1 6.9 8.3 7.1 5.9 2.7 1.1 0.0 0.0 0.0 0.0 0.0 0.0 0.0 0.0 0.0 0.0 0.0 0.0 0.0 0.0 0.0 0.0 0.0 0.0 0.0
8.7 17.0 10.5 7.7 7.7 7.7 13.4 10.5 15.4 16.3 22.2 19.8 18.7 20.6 20.3 16.7 15.4 12.5 12.8 11.5 8.7 7.3 6.9 4.3 1.9 1.1 0.0 0.0 0.0 0.0 0.0 0.0 0.0 0.0 0.0 0.0 0.0 0.0 0.0 0.0 0.0 0.0 0.0 0.0
8.6 13.4 15.1 11.9 17.0 18.2 16.0 15.5 13.8 13.7 14.8 21.5 22.2 22.1 15.2 15.1 13.2 13.1 11.7 9.1 10.3 9.3 8.1 6.9 2.9 0.7 0.0 0.0 0.0 0.0 0.0 0.0 0.0 0.0 0.0 0.0 0.0 0.0 0.0 0.0 0.0 0.0 0.0 0.0
9.9 13.1 18.3 16.9 12.2 9.9 12.7 14.0 14.1 16.9 17.7 17.2 18.6 20.5 10.1 12.1 10.7 10.5 9.7 7.5 8.5 8.5 8.1 6.7 5.9 1.7 1.5 0.3 0.0 0.0 0.0 0.0 0.0 0.0 0.0 0.0 0.0 0.0 0.0 0.0 0.0 0.0 0.0 0.0
8.9 14.4 18.4 16.5 14.2 13.1 17.4 12.8 12.7 13.4 14.3 18.4 20.6 19.9 7.9 10.1 10.1 8.3 10.5 7.5 6.5 6.9 9.1 7.5 6.7 4.3 3.1 2.1 1.1 0.3 0.0 0.0 0.0 0.0 0.0 0.0 0.0 0.0 0.0 0.0 0.0 0.0 0.0 0.0
5.1 15.0 16.5 18.5 19.3 17.9 18.4 14.6 12.9 13.7 18.1 18.3 18.4 17.0 13.8 12.7 12.3 9.9 8.1 6.3 6.7 6.3 7.5 9.1 5.9 5.5 4.3 2.9 1.6 0.0 0.0 0.0 0.0 0.0 0.0 0.0 0.0 0.0 0.0 0.0 0.0 0.0 0.0 0.0
10.6 15.9 16.6 16.9 16.0 14.0 14.5 15.1 14.2 16.0 15.7 19.1 17.9 16.6 14.4 12.9 12.3 10.9 7.5 7.1 7.5 8.3 8.3 7.9 7.1 6.3 5.1 2.6 0.0 0.0 0.0 0.0 0.0 0.0 0.0 0.0 0.0 0.0 0.0 0.0 0.0 0.0 0.0 0.0
11.9 16.9 16.8 17.8 13.8 14.1 14.9 14.0 13.8 14.1 15.1 15.5 15.3 15.9 10.3 8.3 8.1 8.7 7.7 8.7 10.1 9.7 9.1 7.9 6.1 5.9 5.7 2.4 2.4 0.0 0.0 0.0 0.0 0.0 0.0 0.0 0.0 0.0 0.0 0.0 0.0 0.0 0.0 0.0
12.8 15.3 17.8 19.4 14.5 14.2 16.6 17.2 17.8 15.8 15.5 16.6 18.6 15.3 11.5 12.7 10.7 10.7 11.7 11.1 11.9 11.1 9.5 9.7 8.1 6.9 6.7 5.9 4.9 4.9 1.7 0.5 0.0 0.0 0.0 0.0 0.0 0.0 0.0 0.0 0.0 0.0 0.0 0.0
13.5 14.6 16.6 17.7 16.6 22.9 17.0 13.3 14.1 14.5 13.7 14.4 14.6 14.1 12.7 12.3 10.3 9.9 8.1 13.0 12.8 12.1 10.7 10.5 9.9 7.3 5.5 4.5 5.1 4.1 2.1 1.7 0.3 0.0 0.0 0.0 0.0 0.0 0.0 0.0 0.0 0.0 0.0 0.0
8.2 12.8 17.0 19.6 20.0 17.0 14.5 13.4 14.0 16.0 15.8 13.2 13.6 12.1 9.6 9.6 10.0 10.2 6.2 8.8 8.8 9.9 10.1 9.0 9.0 8.3 6.1 5.3 5.1 3.3 2.7 3.3 2.9 2.5 0.3 0.0 0.0 0.0 0.0 0.0 0.0 0.0 0.0 0.0
10.1 12.4 16.0 18.7 19.6 22.1 16.9 13.2 8.3 11.9 17.2 6.4 11.7 10.6 10.6 12.0 15.9 13.6 6.2 7.8 7.8 7.0 7.2 8.8 7.8 8.2 8.3 6.1 4.5 4.1 4.7 5.1 4.9 2.9 0.0 0.0 0.0 0.0 0.0 0.0 0.0 0.0 0.0 0.0
15.3 16.1 17.1 19.8 19.6 17.3 12.5 9.8 7.1 18.7 16.3 5.4 7.7 7.9 8.7 13.3 11.6 8.1 8.2 7.4 8.7 8.0 8.2 6.7 8.8 11.1 9.5 8.5 6.1 7.1 6.5 7.1 4.3 2.3 0.3 0.0 0.0 0.0 0.3 0.0 0.0 0.0 0.0 0.0
15.4 16.2 17.0 18.0 20.1 19.4 8.8 9.4 15.3 12.9 5.4 6.6 6.6 7.4 8.5 9.7 7.5 6.0 7.4 8.3 8.2 7.9 8.7 7.8 10.5 10.9 9.4 9.6 10.3 8.3 8.5 5.9 3.7 2.9 3.1 2.3 2.1 0.9 1.3 2.7 2.3 1.2 0.5 0.0
15.9 13.5 15.6 16.2 16.3 10.7 8.1 5.9 5.1 5.6 5.2 5.4 6.8 1.4 2.5 5.0 6.7 6.8 7.9 8.6 8.1 8.5 9.8 7.9 10.8 10.9 9.5 10.0 9.3 10.4 8.1 5.9 5.3 5.3 5.3 4.9 3.1 3.7 3.3 5.1 4.5 3.6 3.4 2.5
12.8 12.0 13.0 13.7 11.7 10.0 5.7 5.0 3.7 1.2 3.1 0.5 0.3 0.2 1.5 4.2 5.0 6.0 7.3 8.5 8.8 9.1 10.6 9.4 11.7 12.2 11.8 10.3 9.5 8.5 6.7 5.3 5.9 7.5 7.7 6.9 6.5 5.5 5.9 5.7 6.5 7.3 6.8 6.2
9.3 11.2 12.4 12.9 8.6 7.1 4.5 2.6 0.0 0.0 0.0 0.0 0.0 0.0 0.0 1.0 4.0 4.1 6.9 7.7 8.1 8.6 9.4 10.1 11.2 11.1 11.0 9.5 9.1 6.9 6.7 6.7 7.7 7.7 7.5 8.1 7.5 7.3 5.9 5.9 7.7 8.3 8.5 8.3
7.8 10.3 12.0 13.0 4.5 5.2 3.8 0.0 0.0 0.0 0.0 0.0 0.0 0.1 0.0 0.2 2.6 2.9 6.0 6.3 7.0 8.0 8.8 9.2 10.2 10.0 9.8 10.2 9.5 8.6 7.1 8.5 10.0 10.0 10.3 10.1 9.5 8.5 7.3 7.3 6.9 5.0 5.7 6.1